Location: Caserio de Jafra
(41.2816°N, 1.8338°E)
Time: 14:03:03
(UTC+00:00)

Daily predictions for brighter satellites

Satellite Brightness Start Highest point End
(mag) Time Altitude Azimuth Time Altitude Azimuth Time Altitude Azimuth
Cosmos 2218 Rocket 4.5 17:20:43 10° SSW 17:26:58 71° W 17:33:20 10° N
USA 267 3.3 17:21:25 10° SE 17:27:58 86° NE 17:34:34 10° NW
CORIOLIS 4.2 17:24:46 10° SSE 17:30:08 89° ENE 17:35:31 10° NNW
SL-8 R/B 3.8 17:26:06 10° SW 17:30:51 72° SSE 17:35:39 10° ENE
Tiangong 2.0 17:28:20 10° SW 17:31:16 35° SSE 17:34:13 10° E
SKYMED 2 4.1 17:29:48 10° NNE 17:33:53 38° E 17:37:56 10° SSE
PSLV R/B 3.9 17:31:43 10° SSE 17:35:46 89° SW 17:39:47 10° NNW
NOSS 3-1 (C) 4.2 17:33:54 10° SSE 17:37:57 24° ESE 17:42:24 10° ENE
YAOGAN 1 4.0 17:37:13 10° ESE 17:40:09 18° ENE 17:43:05 10° NNE
Cosmos 1455 Rocket 3.5 17:37:14 10° SSE 17:41:22 41° E 17:45:33 10° NNE
SL-19 R/B 4.3 17:36:40 10° NNE 17:42:23 75° ESE 17:47:55 10° S
MOS 1-B 4.3 17:36:49 10° SSE 17:42:37 81° ENE 17:48:25 10° NNW
MOS 1-B Rocket 4.3 17:37:48 10° NNE 17:44:08 45° E 17:49:42 10° S
Cosmos 1934 Rocket 4.4 17:38:52 10° SSE 17:44:22 37° E 17:49:51 10° NNE
Cosmos 405 Rocket 3.3 17:40:50 10° N 17:44:31 36° ENE 17:48:15 10° SE
CZ-4B R/B 3.3 17:39:56 10° SSE 17:45:31 64° ENE 17:51:08 10° N
PAYLOAD B 4.3 17:40:40 10° SSE 17:46:12 89° W 17:51:47 10° NNW
H-2A R/B 3.5 17:46:10 10° NE 17:48:40 15° E 17:51:10 10° SE
Okean O Rocket 1.7 17:46:02 10° SSE 17:50:14 51° ENE 17:54:27 10° N
H-2A R/B 3.4 17:48:20 10° SE 17:52:04 29° ENE 17:55:44 10° N
Cosmos 1544 Rocket 4.2 17:51:14 10° SSE 17:55:14 33° E 17:59:15 10° NNE
Cosmos 1953 2.3 17:51:30 10° S 17:55:32 88° E 17:59:37 10° N
CZ-4C R/B 3.0 17:56:28 10° NNE 17:59:47 50° E 18:02:58 10° S
Meteor 1-21 Rocket 4.3 17:54:36 10° N 18:00:30 83° E 18:06:26 10° S
ARGOS 3.3 17:55:27 10° SSE 18:00:40 54° ENE 18:05:57 10° N
Cosmos 1980 Rocket 2.8 17:56:42 10° SW 18:02:17 61° WNW 18:07:56 10° NNE
Cosmos 2263 Rocket 2.2 17:58:28 10° NNW 18:03:58 57° ENE 18:09:26 10° SE
CZ-2D R/B 3.9 18:00:32 10° S 18:04:19 60° W 18:08:09 10° NNW
H-2A R/B 2.2 18:00:01 10° SSE 18:05:22 85° WSW 18:10:51 10° NNW
CZ-4 R/B 4.4 18:01:27 10° SSE 18:05:32 61° ENE 18:09:38 10° N
Cosmos 2123 Rocket 4.2 17:59:37 10° N 18:05:47 51° ENE 18:11:52 10° SSE
OPS 6432 4.5 18:03:14 10° NNW 18:06:14 51° NE 18:09:21 13° SE
CZ-4 R/B 2.1 18:02:47 10° SE 18:06:17 31° ENE 18:09:52 10° N
Okean-O 4.0 18:05:16 18° E 18:06:25 20° ENE 18:09:36 10° NNE
Okean 1-7 Rocket 3.8 18:07:02 10° N 18:11:17 46° ENE 18:15:33 10° SSE
Iridium 4 Rocket 3.2 18:15:22 10° N 18:19:54 66° E 18:24:51 10° S
Cosmos 1602 Rocket 4.4 18:18:02 10° NNE 18:21:47 28° ENE 18:22:15 27° E
COSMO-SKYMED 1 3.1 18:17:42 10° N 18:22:00 60° WNW 18:26:16 10° SSW
Cosmos 332 Rocket 4.3 18:17:37 10° SSE 18:22:04 36° ESE 18:25:52 13° NE
CZ-2C R/B 2.8 18:17:35 10° NNE 18:23:13 83° WNW 18:28:44 10° SSW
Landsat 5 4.3 18:23:08 10° N 18:27:27 58° WNW 18:31:51 10° SSW
X-37B 1.4 18:25:52 10° WNW 18:28:53 39° N 18:29:33 34° NE
NOSS 2-3 (E) 3.3 18:31:05 10° SSW 18:34:59 65° ESE 18:37:01 29° NE
Cosmos 1269 Rocket 4.0 18:31:02 10° NNW 18:36:21 83° WSW 18:41:37 10° SSE
Cosmos 1844 Rocket 3.8 18:33:27 10° N 18:37:59 25° NE 18:38:02 25° NE
USA 229 DEB 3.8 18:33:09 10° S 18:39:00 43° ESE 18:42:06 26° ENE
USA 229 3.8 18:33:16 10° S 18:39:07 42° ESE 18:42:07 27° ENE
Feng Yun 1-1 Rocket 4.2 18:34:10 10° SSE 18:39:40 87° WSW 18:45:23 10° NNW
Delta 2 Rocket 4.4 18:42:01 10° SW 18:44:30 24° S 18:44:30 24° S
IRAS Rocket 4.3 18:40:18 10° NNE 18:45:52 79° WNW 18:51:22 10° SSW
Cosmos 371 Rocket 3.6 18:45:12 10° SSW 18:50:01 68° WNW 18:54:55 10° NNE
Cosmos 1605 Rocket 3.9 18:45:34 10° S 18:51:46 81° E 18:58:08 10° N
IRS-1C Rocket 4.0 18:47:21 13° SSE 18:51:59 71° ENE 18:57:15 10° N
Cosmos 2251 Rocket 4.1 18:48:18 10° N 18:52:48 37° NE 18:52:48 37° NE
Meteor 1-4 Rocket 3.7 18:49:45 10° S 18:51:40 30° S 18:51:40 30° S
SL-16 R/B 2.2 18:49:04 10° SSW 18:54:44 84° WNW 19:00:27 10° NNE
Lacrosse 4 Rocket 2.5 18:51:22 10° NNW 18:54:19 31° NNE 18:54:19 31° NNE
Cosmos 1626 Rocket 3.5 18:54:07 10° N 18:58:26 78° W 19:02:15 13° S
NOSS 3-1 (A) 3.1 18:56:18 10° SSW 19:01:21 61° ESE 19:02:24 51° ENE
CZ-2C R/B 2.6 18:58:53 10° WSW 19:01:12 24° SSW 19:01:12 24° SSW
Cosmos 1300 4.2 18:59:40 10° SW 19:03:11 36° WNW 19:06:44 10° N
Cosmos 1447 Rocket 4.3 18:57:49 10° N 19:03:57 66° E 19:07:12 29° SSE
Cosmos 1153 Rocket 4.4 18:59:47 10° S 19:06:04 66° E 19:12:25 10° NNE
Tiangong 2.7 19:04:46 10° W 19:06:42 34° W 19:06:42 34° W
Cosmos 2322 Rocket 2.1 19:04:13 10° SSW 19:09:50 83° WNW 19:14:13 17° NNE
ATLAS 5 CENTAUR R/B 4.0 19:08:05 10° WNW 19:10:43 17° NW 19:13:35 10° N
Meteor 2-10 Rocket 3.7 19:05:32 10° SSW 19:11:12 82° W 19:16:40 10° N
SL-8 R/B 4.5 19:09:04 10° W 19:13:38 42° NNW 19:14:17 40° N
YAOGAN 1 3.8 19:11:50 10° S 19:15:55 41° W 19:20:02 10° NNW
Cosmos 2360 Rocket 2.1 19:16:40 10° SSW 19:21:41 68° SSE 19:21:41 68° SSE
NOSS 2-3 (D) 4.3 19:18:29 10° SW 19:22:24 48° NW 19:22:51 46° NNW
H-2A R/B 3.1 19:20:55 10° N 19:24:48 42° WNW 19:28:43 10° SW
NOSS 3-1 (C) 4.0 19:23:08 10° WSW 19:28:13 49° NW 19:31:33 24° NNE
Cosmos 44 4.0 19:26:34 10° SSW 19:30:33 51° SSW 19:30:33 51° SSW
Cosmos 2344 4.3 19:23:42 10° NNW 19:33:08 77° NE 19:38:08 43° SE
CZ-4 R/B 3.9 19:38:22 10° SW 19:41:18 20° W 19:44:18 10° NW
Okean-O 3.9 19:42:51 40° W 19:42:51 40° W 19:46:48 10° NNW
Cosmos 839 Rocket 4.5 19:47:18 10° NW 19:54:27 59° WSW 19:55:15 55° SW
Milstar 3 Cent rocket 4.5 20:00:06 10° SW 20:05:52 35° S 20:05:52 35° S
Cosmos 1844 Rocket 4.3 20:16:46 10° NW 20:19:43 30° NW 20:19:43 30° NW
